| time (UTC) | temp F | wind direction | speed MPH | gust MPH | rain 1hr in | rain 24hr in | rain mn in | humidity % | barometer mb |
| 20260504130539 | 56 | 242 | 1.0 | 1.0 | 0.00 | 0.00 | 0.00 | 61 | 999.3 |
| 20260504110426 | 54 | 99 | 1.0 | 2.0 | 0.00 | 0.00 | 0.00 | 58 | 998.2 |
| 20260504100343 | 54 | 51 | 1.0 | 2.0 | 0.00 | 0.00 | 0.00 | 58 | 998.7 |
| 20260504081736 | 56 | 65 | 4.0 | 6.0 | 0.00 | 0.00 | 0.00 | 49 | 999.8 |
| 20260504081233 | 56 | 91 | 3.0 | 3.0 | 0.00 | 0.00 | 0.00 | 48 | 999.7 |
| 20260504080730 | 55 | 59 | 4.0 | 6.0 | 0.00 | 0.00 | 0.00 | 48 | 999.7 |
| 20260504080226 | 55 | 58 | 2.0 | 4.0 | 0.00 | 0.00 | 0.00 | 48 | 999.8 |
| 20260504070153 | 55 | 47 | 2.0 | 2.0 | 0.00 | 0.00 | 0.00 | 49 | 1000.6 |
| 20260504060114 | 56 | 220 | 1.0 | 1.0 | 0.00 | 0.00 | 0.00 | 45 | 1001.5 |
| 20260504050542 | 56 | 259 | 0.0 | 1.0 | 0.00 | 0.00 | 0.00 | 44 | 1002.1 |
| 20260504045536 | 57 | 181 | 0.0 | 0.0 | 0.00 | 0.00 | 0.00 | 44 | 1002.3 |
| 20260504045031 | 57 | 241 | 0.0 | 0.0 | 0.00 | 0.00 | 0.00 | 44 | 1002.2 |
| 20260504044529 | 57 | 287 | 0.0 | 0.0 | 0.00 | 0.00 | 0.00 | 44 | 1002.1 |
| 20260504044026 | 57 | 278 | 0.0 | 0.0 | 0.00 | 0.00 | 0.00 | 43 | 1002.2 |
| 20260504043523 | 58 | 274 | 0.0 | 0.0 | 0.00 | 0.00 | 0.00 | 43 | 1002.4 |
| 20260504043020 | 58 | 112 | 1.0 | 1.0 | 0.00 | 0.00 | 0.00 | 42 | 1002.4 |
| 20260504042517 | 58 | 254 | 0.0 | 0.0 | 0.00 | 0.00 | 0.00 | 43 | 1002.7 |
| 20260504042014 | 59 | 249 | 0.0 | 0.0 | 0.00 | 0.00 | 0.00 | 42 | 1002.9 |
| 20260504041510 | 59 | 271 | 0.0 | 0.0 | 0.00 | 0.00 | 0.00 | 41 | 1002.9 |
| 20260504041006 | 59 | 97 | 2.0 | 2.0 | 0.00 | 0.00 | 0.00 | 40 | 1003.0 |
| 20260504040504 | 59 | 219 | 0.0 | 1.0 | 0.00 | 0.00 | 0.00 | 41 | 1003.1 |
| 20260504035959 | 59 | 229 | 1.0 | 1.0 | 0.00 | 0.00 | 0.00 | 40 | 1003.2 |
| 20260504035457 | 59 | 300 | 0.0 | 1.0 | 0.00 | 0.00 | 0.00 | 40 | 1003.2 |
| 20260504034953 | 59 | 51 | 2.0 | 3.0 | 0.00 | 0.00 | 0.00 | 41 | 1003.1 |
| 20260504034451 | 59 | 227 | 0.0 | 0.0 | 0.00 | 0.00 | 0.00 | 42 | 1003.2 |
| 20260504033948 | 59 | 61 | 0.0 | 2.0 | 0.00 | 0.00 | 0.00 | 42 | 1003.2 |
| 20260504033446 | 59 | 260 | 1.0 | 2.0 | 0.00 | 0.00 | 0.00 | 42 | 1003.5 |
| 20260504032943 | 60 | 247 | 0.0 | 1.0 | 0.00 | 0.00 | 0.00 | 41 | 1003.4 |
| 20260504032440 | 60 | 151 | 1.0 | 1.0 | 0.00 | 0.00 | 0.00 | 42 | 1003.5 |
| 20260504031936 | 60 | 211 | 1.0 | 1.0 | 0.00 | 0.00 | 0.00 | 41 | 1003.6 |
| 20260504031433 | 60 | 199 | 1.0 | 1.0 | 0.00 | 0.00 | 0.00 | 40 | 1003.8 |
| 20260504030930 | 60 | 227 | 1.0 | 1.0 | 0.00 | 0.00 | 0.00 | 41 | 1003.7 |
| 20260504030427 | 61 | 214 | 0.0 | 1.0 | 0.00 | 0.00 | 0.00 | 41 | 1003.9 |
| 20260504025923 | 61 | 226 | 1.0 | 2.0 | 0.00 | 0.00 | 0.00 | 40 | 1003.8 |
| 20260504025420 | 61 | 246 | 1.0 | 1.0 | 0.00 | 0.00 | 0.00 | 40 | 1003.7 |
| 20260504024917 | 62 | 172 | 1.0 | 1.0 | 0.00 | 0.00 | 0.00 | 40 | 1003.8 |
| 20260504024414 | 62 | 220 | 2.0 | 3.0 | 0.00 | 0.00 | 0.00 | 40 | 1003.9 |
| 20260504023911 | 62 | 241 | 0.0 | 1.0 | 0.00 | 0.00 | 0.00 | 40 | 1003.8 |
| 20260504023408 | 62 | 212 | 2.0 | 2.0 | 0.00 | 0.00 | 0.00 | 40 | 1003.9 |
| 20260504022903 | 62 | 241 | 0.0 | 1.0 | 0.00 | 0.00 | 0.00 | 41 | 1003.8 |
| 20260504022400 | 62 | 142 | 1.0 | 2.0 | 0.00 | 0.00 | 0.00 | 41 | 1003.9 |
| 20260504021856 | 62 | 234 | 0.0 | 0.0 | 0.00 | 0.00 | 0.00 | 41 | 1004.0 |
| 20260504021354 | 62 | 202 | 0.0 | 1.0 | 0.00 | 0.00 | 0.00 | 39 | 1003.8 |
| 20260504020851 | 63 | 118 | 1.0 | 2.0 | 0.00 | 0.00 | 0.00 | 39 | 1003.8 |
| 20260504020347 | 63 | 120 | 2.0 | 2.0 | 0.00 | 0.00 | 0.00 | 39 | 1003.9 |
| 20260504015843 | 64 | 39 | 2.0 | 2.0 | 0.00 | 0.00 | 0.00 | 38 | 1003.9 |
| 20260504015340 | 64 | 10 | 1.0 | 2.0 | 0.00 | 0.00 | 0.00 | 38 | 1004.0 |
| 20260504014836 | 64 | 155 | 2.0 | 3.0 | 0.00 | 0.00 | 0.00 | 37 | 1004.1 |
| 20260504014332 | 65 | 264 | 0.0 | 0.0 | 0.00 | 0.00 | 0.00 | 37 | 1003.9 |
| 20260504013830 | 66 | 243 | 0.0 | 1.0 | 0.00 | 0.00 | 0.00 | 36 | 1004.1 |
| 20260504013327 | 66 | 238 | 1.0 | 1.0 | 0.00 | 0.00 | 0.00 | 35 | 1004.2 |
| 20260504012824 | 67 | 244 | 0.0 | 1.0 | 0.00 | 0.00 | 0.00 | 35 | 1004.1 |
| 20260504012322 | 67 | 274 | 1.0 | 1.0 | 0.00 | 0.00 | 0.00 | 35 | 1004.0 |
| 20260504011819 | 67 | 205 | 1.0 | 2.0 | 0.00 | 0.00 | 0.00 | 35 | 1004.1 |
| 20260504011316 | 68 | 128 | 2.0 | 2.0 | 0.00 | 0.00 | 0.00 | 34 | 1004.1 |
| 20260504010811 | 68 | 101 | 2.0 | 3.0 | 0.00 | 0.00 | 0.00 | 33 | 1004.3 |
| 20260504010307 | 68 | 168 | 3.0 | 3.0 | 0.00 | 0.00 | 0.00 | 33 | 1004.1 |
| 20260504005804 | 69 | 101 | 2.0 | 2.0 | 0.00 | 0.00 | 0.00 | 33 | 1004.3 |
| 20260504005301 | 69 | 192 | 1.0 | 2.0 | 0.00 | 0.00 | 0.00 | 32 | 1004.4 |
| 20260504004758 | 69 | 271 | 1.0 | 2.0 | 0.00 | 0.00 | 0.00 | 33 | 1004.3 |
| 20260504004256 | 70 | 213 | 1.0 | 1.0 | 0.00 | 0.00 | 0.00 | 33 | 1004.3 |
| 20260504003752 | 70 | 82 | 2.0 | 2.0 | 0.00 | 0.00 | 0.00 | 32 | 1004.3 |
| 20260504003249 | 71 | 104 | 4.0 | 4.0 | 0.00 | 0.00 | 0.00 | 31 | 1004.4 |
| 20260504002745 | 71 | 131 | 3.0 | 6.0 | 0.00 | 0.00 | 0.00 | 30 | 1004.4 |
| 20260504002242 | 71 | 53 | 1.0 | 2.0 | 0.00 | 0.00 | 0.00 | 31 | 1004.4 |
| 20260504001740 | 71 | 183 | 2.0 | 3.0 | 0.00 | 0.00 | 0.00 | 31 | 1004.4 |
| 20260504001237 | 71 | 110 | 2.0 | 3.0 | 0.00 | 0.00 | 0.00 | 31 | 1004.5 |
| 20260504000734 | 71 | 123 | 2.0 | 6.0 | 0.00 | 0.00 | 0.00 | 31 | 1004.5 |
| 20260504000231 | 71 | 94 | 2.0 | 3.0 | 0.00 | 0.00 | 0.00 | 31 | 1004.6 |
| 20260503235729 | 71 | 133 | 4.0 | 6.0 | 0.00 | 0.00 | 0.00 | 31 | 1004.6 |
| 20260503235226 | 71 | 157 | 4.0 | 6.0 | 0.00 | 0.00 | 0.00 | 32 | 1004.7 |
| 20260503234724 | 71 | 110 | 2.0 | 3.0 | 0.00 | 0.00 | 0.00 | 32 | 1004.7 |
| 20260503234222 | 71 | 158 | 3.0 | 3.0 | 0.00 | 0.00 | 0.00 | 31 | 1004.8 |
| 20260503233718 | 71 | 60 | 3.0 | 4.0 | 0.00 | 0.00 | 0.00 | 31 | 1004.7 |
| 20260503233214 | 71 | 121 | 3.0 | 3.0 | 0.00 | 0.00 | 0.00 | 30 | 1004.8 |
| 20260503232711 | 72 | 133 | 3.0 | 4.0 | 0.00 | 0.00 | 0.00 | 31 | 1005.1 |
| 20260503232208 | 72 | 113 | 5.0 | 7.0 | 0.00 | 0.00 | 0.00 | 30 | 1005.1 |
| 20260503231707 | 72 | 139 | 4.0 | 4.0 | 0.00 | 0.00 | 0.00 | 30 | 1005.2 |
| 20260503231202 | 72 | 33 | 3.0 | 4.0 | 0.00 | 0.00 | 0.00 | 30 | 1005.2 |
| 20260503230659 | 72 | 163 | 3.0 | 4.0 | 0.00 | 0.00 | 0.00 | 30 | 1005.5 |
| 20260503230156 | 72 | 114 | 6.0 | 7.0 | 0.00 | 0.00 | 0.00 | 29 | 1005.4 |
| 20260503225653 | 73 | 131 | 2.0 | 4.0 | 0.00 | 0.00 | 0.00 | 30 | 1005.3 |
| 20260503225153 | 73 | 202 | 1.0 | 4.0 | 0.00 | 0.00 | 0.00 | 30 | 1005.3 |
| 20260503224651 | 72 | 172 | 3.0 | 3.0 | 0.00 | 0.00 | 0.00 | 29 | 1005.5 |
| 20260503224149 | 73 | 243 | 3.0 | 3.0 | 0.00 | 0.00 | 0.00 | 31 | 1005.5 |
| 20260503223647 | 72 | 150 | 2.0 | 4.0 | 0.00 | 0.00 | 0.00 | 28 | 1005.6 |
| 20260503223143 | 73 | 138 | 5.0 | 8.0 | 0.00 | 0.00 | 0.00 | 28 | 1005.5 |
| 20260503222640 | 73 | 225 | 4.0 | 6.0 | 0.00 | 0.00 | 0.00 | 29 | 1005.5 |
| 20260503222138 | 73 | 236 | 1.0 | 2.0 | 0.00 | 0.00 | 0.00 | 29 | 1005.6 |
| 20260503221636 | 72 | 165 | 2.0 | 2.0 | 0.00 | 0.00 | 0.00 | 31 | 1005.8 |
| 20260503221133 | 73 | 75 | 2.0 | 4.0 | 0.00 | 0.00 | 0.00 | 30 | 1005.7 |
| 20260503220630 | 73 | 88 | 4.0 | 6.0 | 0.00 | 0.00 | 0.00 | 28 | 1005.7 |
| 20260503220126 | 73 | 178 | 1.0 | 2.0 | 0.00 | 0.00 | 0.00 | 29 | 1005.9 |
| 20260503215624 | 73 | 186 | 4.0 | 4.0 | 0.00 | 0.00 | 0.00 | 30 | 1005.9 |
| 20260503215120 | 73 | 138 | 3.0 | 6.0 | 0.00 | 0.00 | 0.00 | 28 | 1006.0 |
| 20260503214619 | 72 | 158 | 3.0 | 6.0 | 0.00 | 0.00 | 0.00 | 30 | 1006.1 |
| 20260503214114 | 72 | 73 | 4.0 | 6.0 | 0.00 | 0.00 | 0.00 | 30 | 1006.1 |
| 20260503213614 | 73 | 164 | 4.0 | 4.0 | 0.00 | 0.00 | 0.00 | 29 | 1006.1 |
| 20260503213110 | 72 | 200 | 3.0 | 4.0 | 0.00 | 0.00 | 0.00 | 31 | 1006.3 |
| 20260503212608 | 72 | 120 | 5.0 | 6.0 | 0.00 | 0.00 | 0.00 | 31 | 1006.4 |
| 20260503212105 | 73 | 153 | 4.0 | 4.0 | 0.00 | 0.00 | 0.00 | 31 | 1006.4 |
| 20260503211602 | 72 | 25 | 3.0 | 4.0 | 0.00 | 0.00 | 0.00 | 32 | 1006.5 |
| 20260503211057 | 72 | 264 | 2.0 | 2.0 | 0.00 | 0.00 | 0.00 | 29 | 1006.6 |
| 20260503210554 | 73 | 189 | 1.0 | 2.0 | 0.00 | 0.00 | 0.00 | 29 | 1006.4 |
| 20260503210050 | 72 | 231 | 2.0 | 3.0 | 0.00 | 0.00 | 0.00 | 31 | 1006.7 |
| 20260503205547 | 73 | 237 | 1.0 | 1.0 | 0.00 | 0.00 | 0.00 | 30 | 1006.7 |
| 20260503205043 | 72 | 94 | 3.0 | 3.0 | 0.00 | 0.00 | 0.00 | 34 | 1006.9 |
| 20260503204540 | 72 | 231 | 3.0 | 4.0 | 0.00 | 0.00 | 0.00 | 31 | 1006.9 |
| 20260503204037 | 72 | 217 | 2.0 | 2.0 | 0.00 | 0.00 | 0.00 | 33 | 1007.1 |
| 20260503203534 | 71 | 174 | 4.0 | 6.0 | 0.00 | 0.00 | 0.00 | 30 | 1007.0 |
| 20260503203031 | 73 | 76 | 2.0 | 6.0 | 0.00 | 0.00 | 0.00 | 32 | 1007.2 |
| 20260503202529 | 72 | 12 | 1.0 | 2.0 | 0.00 | 0.00 | 0.00 | 34 | 1007.1 |
| 20260503202027 | 72 | 222 | 2.0 | 2.0 | 0.00 | 0.00 | 0.00 | 32 | 1007.2 |
| 20260503201525 | 71 | 215 | 2.0 | 2.0 | 0.00 | 0.00 | 0.00 | 33 | 1007.5 |
| 20260503201022 | 71 | 252 | 1.0 | 1.0 | 0.00 | 0.00 | 0.00 | 34 | 1007.3 |
| 20260503200518 | 70 | 268 | 3.0 | 3.0 | 0.00 | 0.00 | 0.00 | 35 | 1007.8 |
| 20260503200015 | 71 | 224 | 2.0 | 2.0 | 0.00 | 0.00 | 0.00 | 32 | 1007.8 |
| 20260503195512 | 72 | 272 | 3.0 | 4.0 | 0.00 | 0.00 | 0.00 | 31 | 1007.8 |
| 20260503195009 | 71 | 150 | 3.0 | 4.0 | 0.00 | 0.00 | 0.00 | 32 | 1007.8 |
| 20260503194506 | 70 | 211 | 3.0 | 4.0 | 0.00 | 0.00 | 0.00 | 33 | 1007.9 |
| 20260503194006 | 70 | 190 | 3.0 | 4.0 | 0.00 | 0.00 | 0.00 | 34 | 1007.9 |
| 20260503193502 | 71 | 248 | 2.0 | 2.0 | 0.00 | 0.00 | 0.00 | 35 | 1008.0 |
| 20260503192958 | 70 | 182 | 4.0 | 7.0 | 0.00 | 0.00 | 0.00 | 32 | 1007.9 |
| 20260503192454 | 70 | 244 | 1.0 | 2.0 | 0.00 | 0.00 | 0.00 | 36 | 1008.1 |
| 20260503191949 | 70 | 261 | 6.0 | 9.0 | 0.00 | 0.00 | 0.00 | 33 | 1008.0 |
| 20260503191448 | 70 | 260 | 4.0 | 6.0 | 0.00 | 0.00 | 0.00 | 34 | 1007.9 |
| 20260503190943 | 69 | 128 | 2.0 | 3.0 | 0.00 | 0.00 | 0.00 | 36 | 1008.1 |
| 20260503190441 | 70 | 154 | 5.0 | 7.0 | 0.00 | 0.00 | 0.00 | 35 | 1008.3 |
| 20260503185938 | 70 | 173 | 7.0 | 11.0 | 0.00 | 0.00 | 0.00 | 34 | 1008.1 |
| 20260503185434 | 70 | 216 | 2.0 | 3.0 | 0.00 | 0.00 | 0.00 | 35 | 1008.2 |
| 20260503184934 | 70 | 187 | 3.0 | 6.0 | 0.00 | 0.00 | 0.00 | 33 | 1008.2 |
| 20260503184431 | 70 | 181 | 2.0 | 3.0 | 0.00 | 0.00 | 0.00 | 34 | 1008.4 |
| 20260503183927 | 70 | 184 | 1.0 | 2.0 | 0.00 | 0.00 | 0.00 | 33 | 1008.5 |
| 20260503183423 | 70 | 243 | 2.0 | 6.0 | 0.00 | 0.00 | 0.00 | 33 | 1008.4 |
| 20260503182921 | 70 | 161 | 6.0 | 7.0 | 0.00 | 0.00 | 0.00 | 33 | 1008.5 |
| 20260503182420 | 70 | 161 | 2.0 | 3.0 | 0.00 | 0.00 | 0.00 | 35 | 1008.7 |
| 20260503181917 | 70 | 210 | 2.0 | 3.0 | 0.00 | 0.00 | 0.00 | 33 | 1008.7 |
| 20260503181414 | 69 | 185 | 3.0 | 4.0 | 0.00 | 0.00 | 0.00 | 34 | 1008.9 |
| 20260503180910 | 70 | 196 | 2.0 | 2.0 | 0.00 | 0.00 | 0.00 | 34 | 1008.6 |
| 20260503180408 | 70 | 248 | 4.0 | 6.0 | 0.00 | 0.00 | 0.00 | 34 | 1008.8 |
| 20260503175904 | 69 | 262 | 3.0 | 4.0 | 0.00 | 0.00 | 0.00 | 35 | 1008.9 |
| 20260503175403 | 69 | 222 | 5.0 | 6.0 | 0.00 | 0.00 | 0.00 | 35 | 1009.1 |
| 20260503174858 | 70 | 244 | 6.0 | 10.0 | 0.00 | 0.00 | 0.00 | 37 | 1008.9 |
| 20260503174356 | 68 | 226 | 2.0 | 3.0 | 0.00 | 0.00 | 0.00 | 35 | 1009.1 |
| 20260503173851 | 68 | 260 | 4.0 | 6.0 | 0.00 | 0.00 | 0.00 | 37 | 1009.0 |
| 20260503173347 | 69 | 288 | 2.0 | 3.0 | 0.00 | 0.00 | 0.00 | 39 | 1009.0 |
| 20260503172844 | 68 | 248 | 4.0 | 6.0 | 0.00 | 0.00 | 0.00 | 37 | 1009.2 |
| 20260503172342 | 67 | 219 | 3.0 | 4.0 | 0.00 | 0.00 | 0.00 | 38 | 1009.2 |
| 20260503171837 | 68 | 263 | 4.0 | 6.0 | 0.00 | 0.00 | 0.00 | 38 | 1009.1 |
| 20260503171335 | 68 | 274 | 6.0 | 8.0 | 0.00 | 0.00 | 0.00 | 36 | 1009.0 |
| 20260503170832 | 68 | 184 | 3.0 | 4.0 | 0.00 | 0.00 | 0.00 | 38 | 1009.2 |
| 20260503170328 | 67 | 247 | 3.0 | 6.0 | 0.00 | 0.00 | 0.00 | 39 | 1009.0 |
| 20260503150721 | 63 | 273 | 2.0 | 3.0 | 0.00 | 0.00 | 0.00 | 47 | 1009.5 |
| 20260503150217 | 62 | 242 | 1.0 | 2.0 | 0.00 | 0.00 | 0.00 | 46 | 1009.5 |
| 20260503140141 | 58 | 229 | 3.0 | 3.0 | 0.00 | 0.00 | 0.00 | 53 | 1009.5 |